Time,TemperatureF,DewpointF,PressureIn,WindDirection,WindDirectionDegrees,WindSpeedMPH,WindSpeedGustMPH,Humidity,HourlyPrecipIn,Conditions,Clouds,dailyrainin,SoftwareType,DateUTC
2013-04-17 00:00:00,44.7,34.8,30.22,NNW,335,6.0,6.0,68,0.00,,,0.12,Wunderground v.1.15,2013-04-17 04:00:00,
2013-04-17 00:10:00,44.6,34.7,30.22,NW,317,5.0,5.0,68,0.00,,,0.00,Wunderground v.1.15,2013-04-17 04:10:00,
2013-04-17 00:20:00,44.3,34.8,30.23,North,355,5.0,5.0,69,0.00,,,0.00,Wunderground v.1.15,2013-04-17 04:20:00,
2013-04-17 00:30:00,44.2,35.0,30.23,NNW,330,4.0,16.0,70,0.00,,,0.00,Wunderground v.1.15,2013-04-17 04:30:00,
2013-04-17 00:40:00,44.1,34.9,30.22,NNW,330,4.0,16.0,70,0.00,,,0.00,Wunderground v.1.15,2013-04-17 04:40:00,
2013-04-17 00:50:00,44.0,34.5,30.23,NNW,342,4.0,16.0,69,0.00,,,0.00,Wunderground v.1.15,2013-04-17 04:50:00,
2013-04-17 01:00:00,43.9,34.4,30.23,NNW,342,4.0,16.0,69,0.00,,,0.00,Wunderground v.1.15,2013-04-17 05:00:00,
2013-04-17 01:10:00,43.9,34.4,30.23,NW,316,4.0,16.0,69,0.00,,,0.00,Wunderground v.1.15,2013-04-17 05:10:00,
2013-04-17 01:20:00,43.7,34.6,30.24,NW,323,4.0,16.0,70,0.00,,,0.00,Wunderground v.1.15,2013-04-17 05:20:00,
2013-04-17 01:30:00,43.6,34.5,30.24,NNW,330,4.0,4.0,70,0.00,,,0.00,Wunderground v.1.15,2013-04-17 05:30:00,
2013-04-17 01:40:00,43.4,34.6,30.24,NNW,344,3.0,16.0,71,0.00,,,0.00,Wunderground v.1.15,2013-04-17 05:40:00,
2013-04-17 01:50:00,43.0,34.2,30.25,NW,323,2.0,16.0,71,0.00,,,0.00,Wunderground v.1.15,2013-04-17 05:50:00,
2013-04-17 02:00:00,42.5,33.8,30.25,West,279,1.0,16.0,71,0.00,,,0.00,Wunderground v.1.15,2013-04-17 06:00:00,
2013-04-17 02:10:00,41.7,33.7,30.25,WNW,283,1.0,16.0,73,0.00,,,0.00,Wunderground v.1.15,2013-04-17 06:10:00,
2013-04-17 02:20:00,41.0,33.3,30.25,West,281,1.0,1.0,74,0.00,,,0.00,Wunderground v.1.15,2013-04-17 06:20:00,
2013-04-17 02:30:00,40.8,33.5,30.25,West,278,1.0,16.0,75,0.00,,,0.00,Wunderground v.1.15,2013-04-17 06:30:00,
2013-04-17 02:40:00,40.7,33.4,30.25,WNW,283,1.0,16.0,75,0.00,,,0.00,Wunderground v.1.15,2013-04-17 06:40:00,
2013-04-17 02:50:00,40.4,33.1,30.25,West,265,1.0,1.0,75,0.00,,,0.00,Wunderground v.1.15,2013-04-17 06:50:00,
2013-04-17 03:00:00,40.1,32.8,30.25,West,281,1.0,1.0,75,0.00,,,0.00,Wunderground v.1.15,2013-04-17 07:00:00,
2013-04-17 03:10:00,39.6,32.3,30.25,West,280,0.0,16.0,75,0.00,,,0.00,Wunderground v.1.15,2013-04-17 07:10:00,
2013-04-17 03:20:00,39.4,32.5,30.25,West,263,1.0,16.0,76,0.00,,,0.00,Wunderground v.1.15,2013-04-17 07:20:00,
2013-04-17 03:30:00,38.9,32.3,30.25,West,263,1.0,16.0,77,0.00,,,0.00,Wunderground v.1.15,2013-04-17 07:30:00,
2013-04-17 03:40:00,38.7,32.4,30.25,West,263,0.0,16.0,78,0.00,,,0.00,Wunderground v.1.15,2013-04-17 07:40:00,
2013-04-17 03:50:00,37.9,32.0,30.25,West,263,0.0,16.0,79,0.00,,,0.00,Wunderground v.1.15,2013-04-17 07:50:00,
2013-04-17 04:00:00,37.5,32.2,30.25,West,263,0.0,16.0,81,0.00,,,0.00,Wunderground v.1.15,2013-04-17 08:00:00,
2013-04-17 04:10:00,36.7,32.0,30.25,West,263,0.0,16.0,83,0.00,,,0.00,Wunderground v.1.15,2013-04-17 08:10:00,
2013-04-17 04:21:00,36.8,31.8,30.25,West,263,0.0,16.0,82,0.00,,,0.00,Wunderground v.1.15,2013-04-17 08:21:00,
2013-04-17 04:31:00,36.5,32.1,30.25,West,263,1.0,1.0,84,0.00,,,0.00,Wunderground v.1.15,2013-04-17 08:31:00,
2013-04-17 04:40:00,36.6,32.2,30.26,WSW,242,1.0,16.0,84,0.00,,,0.00,Wunderground v.1.15,2013-04-17 08:40:00,
2013-04-17 04:51:00,36.2,31.8,30.26,SW,218,1.0,16.0,84,0.00,,,0.00,Wunderground v.1.15,2013-04-17 08:51:00,
2013-04-17 05:01:00,36.0,31.6,30.26,SW,222,2.0,16.0,84,0.00,,,0.00,Wunderground v.1.15,2013-04-17 09:01:00,
2013-04-17 05:11:00,36.2,31.8,30.27,West,269,1.0,16.0,84,0.00,,,0.00,Wunderground v.1.15,2013-04-17 09:11:00,
2013-04-17 05:21:00,36.9,31.6,30.27,West,269,1.0,16.0,81,0.00,,,0.00,Wunderground v.1.15,2013-04-17 09:21:00,
2013-04-17 05:31:00,36.7,31.4,30.27,West,267,0.0,16.0,81,0.00,,,0.00,Wunderground v.1.15,2013-04-17 09:31:00,
2013-04-17 05:41:00,36.5,31.5,30.28,SW,236,1.0,16.0,82,0.00,,,0.00,Wunderground v.1.15,2013-04-17 09:41:00,
2013-04-17 05:50:00,35.8,31.1,30.28,SSW,213,2.0,2.0,83,0.00,,,0.00,Wunderground v.1.15,2013-04-17 09:50:00,
2013-04-17 06:00:00,36.0,31.3,30.29,SW,229,1.0,1.0,83,0.00,,,0.00,Wunderground v.1.15,2013-04-17 10:00:00,
2013-04-17 06:10:00,36.3,31.6,30.28,SW,229,0.0,0.0,83,0.00,,,0.00,Wunderground v.1.15,2013-04-17 10:10:00,
2013-04-17 06:20:00,36.2,31.2,30.29,WSW,257,1.0,1.0,82,0.00,,,0.00,Wunderground v.1.15,2013-04-17 10:20:00,
2013-04-17 06:30:00,35.6,30.9,30.30,SW,220,1.0,1.0,83,0.00,,,0.00,Wunderground v.1.15,2013-04-17 10:30:00,
2013-04-17 06:40:00,35.3,31.2,30.30,SSW,211,1.0,1.0,85,0.00,,,0.00,Wunderground v.1.15,2013-04-17 10:40:00,
2013-04-17 06:50:00,36.0,31.6,30.31,SSW,212,0.0,4.0,84,0.00,,,0.00,Wunderground v.1.15,2013-04-17 10:50:00,
2013-04-17 07:00:00,36.4,31.7,30.31,SSW,212,0.0,4.0,83,0.00,,,0.00,Wunderground v.1.15,2013-04-17 11:00:00,
2013-04-17 07:10:00,36.8,32.1,30.31,WSW,242,0.0,4.0,83,0.00,,,0.00,Wunderground v.1.15,2013-04-17 11:10:00,
2013-04-17 07:20:00,37.6,32.6,30.32,West,274,1.0,4.0,82,0.00,,,0.00,Wunderground v.1.15,2013-04-17 11:20:00,
2013-04-17 07:30:00,38.4,33.4,30.32,WNW,291,1.0,4.0,82,0.00,,,0.00,Wunderground v.1.15,2013-04-17 11:30:00,
2013-04-17 07:40:00,39.2,33.9,30.33,NNW,344,1.0,4.0,81,0.00,,,0.00,Wunderground v.1.15,2013-04-17 11:40:00,
2013-04-17 07:50:00,40.2,34.5,30.33,NW,326,1.0,4.0,80,0.00,,,0.00,Wunderground v.1.15,2013-04-17 11:50:00,
2013-04-17 08:00:00,41.1,35.1,30.33,NW,324,3.0,4.0,79,0.00,,,0.00,Wunderground v.1.15,2013-04-17 12:00:00,
2013-04-17 08:10:00,41.7,35.0,30.34,NW,307,4.0,4.0,77,0.00,,,0.00,Wunderground v.1.15,2013-04-17 12:10:00,
2013-04-17 08:20:00,42.1,34.7,30.34,NW,325,4.0,5.0,75,0.00,,,0.00,Wunderground v.1.15,2013-04-17 12:20:00,
2013-04-17 08:30:00,42.5,34.8,30.34,NW,319,4.0,4.0,74,0.00,,,0.00,Wunderground v.1.15,2013-04-17 12:30:00,
2013-04-17 08:40:00,43.1,35.0,30.34,WNW,287,3.0,3.0,73,0.00,,,0.00,Wunderground v.1.15,2013-04-17 12:40:00,
2013-04-17 08:50:00,43.2,35.1,30.34,WNW,294,2.0,4.0,73,0.00,,,0.00,Wunderground v.1.15,2013-04-17 12:50:00,
2013-04-17 09:00:00,44.4,35.2,30.34,NNW,342,2.0,4.0,70,0.00,,,0.00,Wunderground v.1.15,2013-04-17 13:00:00,
2013-04-17 09:10:00,43.8,34.3,30.34,WSW,237,2.0,2.0,69,0.00,,,0.00,Wunderground v.1.15,2013-04-17 13:10:00,
2013-04-17 09:30:00,45.4,36.2,30.34,NNE,30,4.0,4.0,70,0.00,,,0.00,Wunderground v.1.15,2013-04-17 13:30:00,
2013-04-17 09:40:00,45.2,36.4,30.34,North,9,2.0,4.0,71,0.00,,,0.00,Wunderground v.1.15,2013-04-17 13:40:00,
2013-04-17 09:50:00,45.9,36.3,30.34,West,277,3.0,3.0,69,0.00,,,0.00,Wunderground v.1.15,2013-04-17 13:50:00,
2013-04-17 10:00:00,46.7,37.1,30.34,NNE,18,2.0,4.0,69,0.00,,,0.00,Wunderground v.1.15,2013-04-17 14:00:00,
2013-04-17 10:10:00,47.5,36.3,30.34,NE,38,4.0,4.0,65,0.00,,,0.00,Wunderground v.1.15,2013-04-17 14:10:00,
2013-04-17 10:20:00,48.0,37.6,30.34,NE,52,5.0,5.0,67,0.00,,,0.00,Wunderground v.1.15,2013-04-17 14:20:00,
2013-04-17 10:30:00,47.4,36.2,30.35,ENE,62,3.0,4.0,65,0.00,,,0.00,Wunderground v.1.15,2013-04-17 14:30:00,
2013-04-17 10:40:00,48.5,37.3,30.34,NW,321,3.0,4.0,65,0.00,,,0.00,Wunderground v.1.15,2013-04-17 14:40:00,
2013-04-17 10:50:00,48.7,36.7,30.34,NE,38,5.0,8.0,63,0.00,,,0.00,Wunderground v.1.15,2013-04-17 14:50:00,
2013-04-17 11:00:00,49.2,38.7,30.34,North,10,5.0,10.0,67,0.00,,,0.00,Wunderground v.1.15,2013-04-17 15:00:00,
2013-04-17 11:10:00,49.6,37.5,30.34,NE,43,7.0,7.0,63,0.00,,,0.00,Wunderground v.1.15,2013-04-17 15:10:00,
2013-04-17 11:20:00,49.9,36.1,30.33,NNE,28,6.0,8.0,59,0.00,,,0.00,Wunderground v.1.15,2013-04-17 15:20:00,
2013-04-17 11:30:00,50.1,36.7,30.33,NE,46,6.0,6.0,60,0.00,,,0.00,Wunderground v.1.15,2013-04-17 15:30:00,
2013-04-17 11:40:00,50.3,36.1,30.33,NNE,22,7.0,7.0,58,0.00,,,0.00,Wunderground v.1.15,2013-04-17 15:40:00,
2013-04-17 11:50:00,50.4,35.7,30.33,North,10,6.0,7.0,57,0.00,,,0.00,Wunderground v.1.15,2013-04-17 15:50:00,
2013-04-17 12:00:00,50.4,34.8,30.33,ENE,76,5.0,5.0,55,0.00,,,0.00,Wunderground v.1.15,2013-04-17 16:00:00,
2013-04-17 12:10:00,51.8,37.5,30.34,NE,45,5.0,5.0,58,0.00,,,0.00,Wunderground v.1.15,2013-04-17 16:10:00,
2013-04-17 12:20:00,51.0,34.9,30.34,ESE,104,5.0,5.0,54,0.00,,,0.00,Wunderground v.1.15,2013-04-17 16:20:00,
2013-04-17 12:30:00,51.3,36.1,30.34,NW,322,5.0,7.0,56,0.00,,,0.00,Wunderground v.1.15,2013-04-17 16:30:00,
2013-04-17 12:40:00,51.6,36.9,30.34,NE,35,4.0,7.0,57,0.00,,,0.00,Wunderground v.1.15,2013-04-17 16:40:00,
2013-04-17 12:50:00,52.3,37.5,30.33,NNE,26,6.0,7.0,57,0.00,,,0.00,Wunderground v.1.15,2013-04-17 16:50:00,
2013-04-17 13:00:00,52.5,35.8,30.33,NNE,27,7.0,7.0,53,0.00,,,0.00,Wunderground v.1.15,2013-04-17 17:00:00,
2013-04-17 13:10:00,52.9,36.2,30.33,NNW,345,6.0,6.0,53,0.00,,,0.00,Wunderground v.1.15,2013-04-17 17:10:00,
2013-04-17 13:20:00,52.3,35.7,30.33,North,355,5.0,5.0,53,0.00,,,0.00,Wunderground v.1.15,2013-04-17 17:20:00,
2013-04-17 13:30:00,53.3,36.1,30.33,NNE,17,7.0,8.0,52,0.00,,,0.00,Wunderground v.1.15,2013-04-17 17:30:00,
2013-04-17 13:40:00,53.0,34.3,30.33,NNE,18,5.0,8.0,49,0.00,,,0.00,Wunderground v.1.15,2013-04-17 17:40:00,
2013-04-17 13:50:00,53.4,34.7,30.33,NE,38,4.0,9.0,49,0.00,,,0.00,Wunderground v.1.15,2013-04-17 17:50:00,
2013-04-17 14:00:00,53.9,36.2,30.33,NNE,20,6.0,13.0,51,0.00,,,0.00,Wunderground v.1.15,2013-04-17 18:00:00,
2013-04-17 14:10:00,53.5,36.8,30.33,NE,42,6.0,6.0,53,0.00,,,0.00,Wunderground v.1.15,2013-04-17 18:10:00,
2013-04-17 14:20:00,53.6,34.9,30.33,NE,56,6.0,6.0,49,0.00,,,0.00,Wunderground v.1.15,2013-04-17 18:20:00,
2013-04-17 14:30:00,54.1,34.8,30.33,NNE,24,7.0,12.0,48,0.00,,,0.00,Wunderground v.1.15,2013-04-17 18:30:00,
2013-04-17 14:40:00,54.2,35.9,30.33,NNE,19,8.0,8.0,50,0.00,,,0.00,Wunderground v.1.15,2013-04-17 18:40:00,
2013-04-17 14:50:00,54.0,35.3,30.33,NNE,28,8.0,8.0,49,0.00,,,0.00,Wunderground v.1.15,2013-04-17 18:50:00,
2013-04-17 15:01:00,54.3,35.0,30.32,NE,34,8.0,8.0,48,0.00,,,0.00,Wunderground v.1.15,2013-04-17 19:01:00,
2013-04-17 15:10:00,54.2,36.9,30.31,NE,46,7.0,12.0,52,0.00,,,0.00,Wunderground v.1.15,2013-04-17 19:10:00,
2013-04-17 15:20:00,53.8,32.9,30.32,NNE,31,8.0,8.0,45,0.00,,,0.00,Wunderground v.1.15,2013-04-17 19:20:00,
2013-04-17 15:30:00,53.9,33.0,30.33,NNW,338,5.0,6.0,45,0.00,,,0.00,Wunderground v.1.15,2013-04-17 19:30:00,
2013-04-17 15:40:00,53.7,33.9,30.33,NE,51,7.0,9.0,47,0.00,,,0.00,Wunderground v.1.15,2013-04-17 19:40:00,
2013-04-17 15:51:00,54.2,34.9,30.32,NE,37,9.0,9.0,48,0.00,,,0.00,Wunderground v.1.15,2013-04-17 19:51:00,
2013-04-17 16:00:00,53.9,34.6,30.32,NE,38,8.0,11.0,48,0.00,,,0.00,Wunderground v.1.15,2013-04-17 20:00:00,
2013-04-17 16:10:00,53.4,33.1,30.32,North,9,9.0,9.0,46,0.00,,,0.00,Wunderground v.1.15,2013-04-17 20:10:00,
2013-04-17 16:20:00,53.4,33.7,30.31,NNW,333,8.0,8.0,47,0.00,,,0.00,Wunderground v.1.15,2013-04-17 20:20:00,
2013-04-17 16:30:00,53.0,32.8,30.32,NE,40,8.0,10.0,46,0.00,,,0.00,Wunderground v.1.15,2013-04-17 20:30:00,
2013-04-17 16:41:00,53.1,32.3,30.31,NNE,15,8.0,9.0,45,0.00,,,0.00,Wunderground v.1.15,2013-04-17 20:41:00,
2013-04-17 16:50:00,53.4,33.1,30.32,NE,51,8.0,9.0,46,0.00,,,0.00,Wunderground v.1.15,2013-04-17 20:50:00,
2013-04-17 17:01:00,52.8,32.0,30.32,NE,47,8.0,11.0,45,0.00,,,0.00,Wunderground v.1.15,2013-04-17 21:01:00,
2013-04-17 17:11:00,52.8,34.2,30.31,NE,44,8.0,10.0,49,0.00,,,0.00,Wunderground v.1.15,2013-04-17 21:11:00,
2013-04-17 17:21:00,52.5,33.4,30.32,North,9,10.0,10.0,48,0.00,,,0.00,Wunderground v.1.15,2013-04-17 21:21:00,
2013-04-17 17:31:00,52.4,34.8,30.32,NNE,29,7.0,8.0,51,0.00,,,0.00,Wunderground v.1.15,2013-04-17 21:31:00,
2013-04-17 17:41:00,51.9,33.8,30.32,NNW,348,8.0,8.0,50,0.00,,,0.00,Wunderground v.1.15,2013-04-17 21:41:00,
2013-04-17 17:50:00,51.7,32.6,30.31,NNE,31,8.0,10.0,48,0.00,,,0.00,Wunderground v.1.15,2013-04-17 21:50:00,
2013-04-17 18:00:00,51.5,32.4,30.31,NNE,28,8.0,8.0,48,0.00,,,0.00,Wunderground v.1.15,2013-04-17 22:00:00,
2013-04-17 18:10:00,51.3,31.7,30.31,NE,34,6.0,9.0,47,0.00,,,0.00,Wunderground v.1.15,2013-04-17 22:10:00,
2013-04-17 18:20:00,51.0,30.4,30.31,NNE,25,7.0,8.0,45,0.00,,,0.00,Wunderground v.1.15,2013-04-17 22:20:00,
2013-04-17 18:30:00,50.6,30.0,30.31,NNE,31,8.0,8.0,45,0.00,,,0.00,Wunderground v.1.15,2013-04-17 22:30:00,
2013-04-17 18:40:00,50.6,31.1,30.30,NE,34,6.0,6.0,47,0.00,,,0.00,Wunderground v.1.15,2013-04-17 22:40:00,
2013-04-17 18:50:00,50.4,29.3,30.30,NE,49,5.0,5.0,44,0.00,,,0.00,Wunderground v.1.15,2013-04-17 22:50:00,
2013-04-17 19:00:00,50.3,27.5,30.30,NE,53,5.0,6.0,41,0.00,,,0.00,Wunderground v.1.15,2013-04-17 23:00:00,
2013-04-17 19:10:00,49.9,28.3,30.29,East,90,5.0,5.0,43,0.00,,,0.00,Wunderground v.1.15,2013-04-17 23:10:00,
2013-04-17 19:20:00,49.0,31.2,30.30,NE,42,5.0,5.0,50,0.00,,,0.00,Wunderground v.1.15,2013-04-17 23:20:00,
2013-04-17 19:30:00,48.1,31.8,30.31,NE,48,4.0,4.0,53,0.00,,,0.00,Wunderground v.1.15,2013-04-17 23:30:00,
2013-04-17 19:40:00,47.8,31.5,30.31,ENE,67,3.0,3.0,53,0.00,,,0.00,Wunderground v.1.15,2013-04-17 23:40:00,
2013-04-17 19:50:00,47.4,31.6,30.31,ENE,74,2.0,4.0,54,0.00,,,0.00,Wunderground v.1.15,2013-04-17 23:50:00,
2013-04-17 20:00:00,47.4,32.0,30.31,ENE,72,2.0,4.0,55,0.00,,,0.00,Wunderground v.1.15,2013-04-18 00:00:00,
2013-04-17 20:10:00,47.0,32.1,30.30,NE,49,2.0,4.0,56,0.00,,,0.00,Wunderground v.1.15,2013-04-18 00:10:00,
2013-04-17 20:20:00,46.8,31.9,30.31,NE,48,2.0,2.0,56,0.00,,,0.00,Wunderground v.1.15,2013-04-18 00:20:00,
2013-04-17 20:30:00,46.2,32.7,30.30,NE,47,3.0,4.0,59,0.00,,,0.00,Wunderground v.1.15,2013-04-18 00:30:00,
2013-04-17 20:40:00,45.9,32.8,30.29,ENE,60,2.0,4.0,60,0.00,,,0.00,Wunderground v.1.15,2013-04-18 00:40:00,
2013-04-17 20:50:00,46.1,33.0,30.29,ENE,58,2.0,4.0,60,0.00,,,0.00,Wunderground v.1.15,2013-04-18 00:50:00,
2013-04-17 21:00:00,45.8,33.5,30.29,NE,54,2.0,4.0,62,0.00,,,0.00,Wunderground v.1.15,2013-04-18 01:00:00,
2013-04-17 21:10:00,45.4,33.5,30.30,NE,51,2.0,2.0,63,0.00,,,0.00,Wunderground v.1.15,2013-04-18 01:10:00,
2013-04-17 21:20:00,44.8,33.7,30.29,NE,49,2.0,4.0,65,0.00,,,0.00,Wunderground v.1.15,2013-04-18 01:20:00,
2013-04-17 21:30:00,44.2,33.6,30.29,NE,36,2.0,4.0,66,0.00,,,0.00,Wunderground v.1.15,2013-04-18 01:30:00,
2013-04-17 21:40:00,44.5,33.5,30.28,NE,38,2.0,4.0,65,0.00,,,0.00,Wunderground v.1.15,2013-04-18 01:40:00,
2013-04-17 21:50:00,44.4,33.7,30.27,NE,56,3.0,4.0,66,0.00,,,0.00,Wunderground v.1.15,2013-04-18 01:50:00,
2013-04-17 22:00:00,45.1,33.6,30.27,NE,44,4.0,4.0,64,0.00,,,0.00,Wunderground v.1.15,2013-04-18 02:00:00,
2013-04-17 22:10:00,45.2,33.3,30.27,ENE,59,3.0,3.0,63,0.00,,,0.00,Wunderground v.1.15,2013-04-18 02:10:00,
2013-04-17 22:20:00,45.2,33.3,30.27,ENE,65,3.0,3.0,63,0.00,,,0.00,Wunderground v.1.15,2013-04-18 02:20:00,
2013-04-17 22:30:00,44.4,33.4,30.26,ESE,103,2.0,2.0,65,0.00,,,0.00,Wunderground v.1.15,2013-04-18 02:30:00,
2013-04-17 22:40:00,43.9,33.6,30.26,SE,143,2.0,4.0,67,0.00,,,0.00,Wunderground v.1.15,2013-04-18 02:40:00,
2013-04-17 22:50:00,44.3,33.7,30.26,SE,139,2.0,4.0,66,0.00,,,0.00,Wunderground v.1.15,2013-04-18 02:50:00,
2013-04-17 23:00:00,42.6,33.9,30.26,SSE,147,2.0,2.0,71,0.00,,,0.00,Wunderground v.1.15,2013-04-18 03:00:00,
2013-04-17 23:10:00,42.2,34.2,30.26,SSE,147,1.0,4.0,73,0.00,,,0.00,Wunderground v.1.15,2013-04-18 03:10:00,
2013-04-17 23:20:00,42.2,33.8,30.25,ESE,123,3.0,3.0,72,0.00,,,0.00,Wunderground v.1.15,2013-04-18 03:20:00,
2013-04-17 23:30:00,43.4,33.9,30.24,ESE,115,3.0,3.0,69,0.00,,,0.00,Wunderground v.1.15,2013-04-18 03:30:00,
2013-04-17 23:40:00,43.7,33.8,30.25,SE,131,2.0,2.0,68,0.00,,,0.00,Wunderground v.1.15,2013-04-18 03:40:00,
2013-04-17 23:50:00,43.2,34.1,30.25,SE,131,0.0,4.0,70,0.00,,,0.00,Wunderground v.1.15,2013-04-18 03:50:00,